Starlink 35441

operational
NORAD ID: 65869 Int'l Des: 2025-223 Owner: SPXS Country: US Constellation: starlink
NOTLE

Starlink 35441について

説明を読み込み中...

リアルタイム位置

3D地球を読み込み中...

次回通過

高度履歴

Altitude vs Time

uPlot chart will show altitude changes over time

軌道要素

1 65869U 25223R 25341.08188256 .00048219 00000-0 16258-2 0 9999
2 65869 53.1600 4.5621 0002376 109.5600 250.5658 15.30275048 10027
Epoch: Dec 7, 2025 • Age: 17 hours

現在のステータス

高度 493.9 km
速度 7.62 km/s
衛星直下点 -50.61°S, 63.89°W
打ち上げ日 Oct 3, 2025
運用期間 0.1 years
タイプ internet

技術仕様

分類 Payload
質量 575.00 kg
乾燥質量 530.00 kg
総質量 575.00 kg
長さ 0.30 m
直径 4.10 m
スパン 29.00 m
形状 Box + pan
製造者 SPXS
バスタイプ Starlink V2MO
フェーズステータス In Orbit
所有者/国 SPXS/US

大規模コンステレーション

Loading constellations...